Tacoma Narrows, WA
on Saturday, November 3, 2012

Saturday
Previous Day Next Day
Daily Summary
 ActualAverageRecord
Temperature
Mean Temperature °F °F  
Max Temperature 59°F 51°F 68°F (2010)
Min Temperature 51°F 41°F 30°F (2002)
Degree Days
Heating Degree Days 10    
Growing Degree Days5 (Base °F )  
Moisture
Dew Point 52°F   
Average Humidity 93    
Maximum Humidity 100    
Minimum Humidity 78    
Precipitation
Precipitation 0.13 in in in ()
Wind
Wind Speed 2 mph   
Max Wind Speed 16 mph   
Max Gust Speed 22 mph   
Visibility 6 miles   
Events Fog , Rain   
Averages and records for this station are not official NWS values.
Key: T is trace of precipitation, MM is missing value
Source: NWS Daily Summary
Seasonal Weather Averages
Time(PDT)TemperatureDew PointHumidity Pressure Visibility Wind DirectionWind SpeedGust SpeedPrecipitationEvents Conditions
12:07 AM 51.8°F 51.8°F 100% 29.98 in 0.5 miles Calm Calm - 0.00 in Fog , Rain Light Rain
12:16 AM 51.8°F 51.8°F 100% 29.98 in 2.0 miles Calm Calm - 0.01 in Rain Light Rain
12:53 AM 52.0°F 51.1°F 97% 29.99 in 2.0 miles Calm Calm - 0.02 in Rain Light Rain
1:06 AM 51.8°F 51.8°F 100% 29.98 in 4.0 miles Calm Calm - 0.00 in Rain Light Rain
1:53 AM 52.0°F 51.1°F 97% 29.98 in 2.5 miles Calm Calm - 0.02 in Rain Light Rain
2:03 AM 51.8°F 51.8°F 100% 29.97 in 5.0 miles Calm Calm - 0.00 in   Overcast
2:19 AM 51.8°F 51.8°F 100% 29.97 in 1.8 miles ESE 3.5 mph - 0.01 in Rain Light Rain
2:24 AM 51.8°F 51.8°F 100% 29.97 in 0.2 miles Calm Calm - 0.01 in Fog , Rain Light Rain
2:27 AM 51.8°F 51.8°F 100% 29.97 in 0.2 miles Calm Calm - 0.02 in Fog , Rain Light Rain
2:38 AM 51.8°F 51.8°F 100% 29.97 in 0.2 miles Calm Calm - 0.02 in Fog , Rain Light Rain
2:45 AM 51.8°F 50.0°F 94% 29.98 in 0.2 miles Calm Calm - 0.02 in Fog Fog
2:53 AM 52.0°F 51.1°F 97% 29.98 in 0.5 miles Calm Calm - 0.02 in Fog Fog
2:57 AM 51.8°F 51.8°F 100% 29.98 in 1.0 miles Calm Calm - N/A   Overcast
3:02 AM 51.8°F 51.8°F 100% 29.98 in 3.0 miles Calm Calm - N/A   Overcast
3:15 AM 51.8°F 51.8°F 100% 29.98 in 4.0 miles Calm Calm - N/A   Overcast
3:43 AM 51.8°F 51.8°F 100% 29.99 in 2.0 miles Calm Calm - 0.00 in Rain Light Rain
3:53 AM 52.0°F 51.1°F 97% 29.99 in 2.5 miles Calm Calm - 0.00 in   Overcast
4:00 AM 51.8°F 51.8°F 100% 29.99 in 3.0 miles Calm Calm - N/A   Overcast
4:20 AM 53.6°F 51.8°F 94% 29.99 in 2.0 miles Calm Calm - 0.01 in Rain Light Rain
4:31 AM 53.6°F 51.8°F 94% 29.99 in 1.8 miles Calm Calm - 0.01 in Rain Light Rain
4:38 AM 53.6°F 51.8°F 94% 29.99 in 2.5 miles Calm Calm - 0.01 in   Overcast
4:46 AM 53.6°F 51.8°F 94% 30.00 in 4.0 miles Calm Calm - 0.01 in   Overcast
4:53 AM 53.1°F 51.1°F 93% 30.00 in 4.0 miles Calm Calm - 0.01 in   Overcast
5:53 AM 53.1°F 51.1°F 93% 30.00 in 8.0 miles Calm Calm - N/A   Overcast
6:53 AM 53.1°F 51.1°F 93% 30.00 in 8.0 miles Calm Calm - N/A   Overcast
7:53 AM 53.1°F 51.1°F 93% 30.02 in 10.0 miles South 3.5 mph - N/A   Overcast
7:58 AM 53.6°F 51.8°F 94% 30.02 in 10.0 miles Calm Calm - N/A   Overcast
8:53 AM 53.1°F 51.1°F 93% 30.03 in 8.0 miles SSE 3.5 mph - N/A   Overcast
8:59 AM 53.6°F 51.8°F 94% 30.02 in 8.0 miles South 3.5 mph - N/A   Overcast
9:53 AM 55.0°F 51.1°F 86% 30.04 in 10.0 miles SSW 6.9 mph - N/A   Overcast
9:54 AM 55.0°F 51.1°F 86% 30.04 in 10.0 miles SSW 6.9 mph - N/A   Overcast
10:53 AM 55.9°F 52.0°F 87% 30.04 in 10.0 miles South 3.5 mph - N/A   Overcast
11:53 AM 57.0°F 52.0°F 83% 30.05 in 10.0 miles South 8.1 mph - N/A   Overcast
12:53 PM 57.9°F 53.1°F 84% 30.05 in 10.0 miles South 11.5 mph - N/A   Overcast
1:53 PM 59.0°F 52.0°F 78% 30.06 in 10.0 miles SSW 12.7 mph - 0.00 in   Overcast
2:53 PM 59.0°F 53.1°F 81% 30.06 in 9.0 miles South 12.7 mph - 0.00 in   Overcast
3:45 PM 57.2°F 53.6°F 88% 30.08 in 2.0 miles South 16.1 mph 21.9 mph 0.03 in Rain Rain
3:53 PM 57.0°F 54.0°F 89% 30.09 in 2.0 miles SSW 11.5 mph 21.9 mph 0.06 in Rain Light Rain
4:00 PM 57.2°F 53.6°F 88% 30.10 in 4.0 miles SSW 9.2 mph - 0.00 in Rain Light Rain
4:43 PM 57.2°F 53.6°F 88% 30.11 in 10.0 miles South 10.4 mph - 0.00 in   Overcast
4:53 PM 57.0°F 54.0°F 89% 30.11 in 10.0 miles South 12.7 mph 19.6 mph 0.00 in   Overcast
5:53 PM 57.0°F 54.0°F 89% 30.13 in 10.0 miles SSW 9.2 mph - N/A   Overcast
6:53 PM 57.0°F 53.1°F 87% 30.15 in 10.0 miles SSW 9.2 mph - 0.00 in   Overcast
7:53 PM 55.9°F 53.1°F 90% 30.14 in 10.0 miles South 9.2 mph - N/A   Overcast
8:53 PM 55.9°F 53.1°F 90% 30.14 in 10.0 miles South 6.9 mph - 0.00 in   Overcast
9:53 PM 57.0°F 52.0°F 83% 30.15 in 10.0 miles Calm Calm - N/A   Overcast
10:53 PM 55.9°F 52.0°F 87% 30.17 in 10.0 miles South 4.6 mph - N/A   Overcast
11:53 PM 55.0°F 52.0°F 89% 30.19 in 10.0 miles Calm Calm - N/A   Overcast
Moon Phase
Nov. 03 Nov. 06 Nov. 13 Nov. 20 Nov. 28
Sunrise:07:57 AM (PDT) Moon Rise:09:29 PM (PDT)11/3
Sunset:05:49 PM (PDT) Moon Set:12:12 PM (PDT)11/3

Copyright © 2014 The Weather Underground, Inc.